Вернуться в каталог

SL-16 DEB

АктивенLEO
NORAD 39714·DEBRIS·🇷🇺 Russia

Запущен Dec 25, 1992 с Baikonur Cosmodrome

Loading…

Ближайшие Пролёты (ближайшие 24 часа)

TLE

СвежийSource: Space-Track

Эпоха: Sep 14, 2026, 05:57 UTC

1 39714U 92093KE  26257.24794863  .00000399  00000-0  18225-3 0  9994
2 39714  71.0834 195.1452 0092835   3.0603 357.1073 14.25055997665296

Отслеживайте SL-16 DEB в реальном времени с AllMySat

Download on the App Store